Home   Weather   Kalgoorlie   Past weeks

Flag for Australia Past Weather in Kalgoorlie, Western Australia, Australia — Yesterday and Last 2 Weeks

Now
55 °F

Clear.


Feels Like: 55 °F
Forecast: 52 / 69 °F
Wind: 5 mph from Northeast

Location: Kalgoorlie Boulder Amo

Current Time: Apr 27, 2017 at 5:45:09 am

Latest Report: Apr 27, 2017 at 5:00 am


Visibility: N/A

Pressure: 30.33 "Hg

Humidity: 63%

Dew Point: 43 °F

Location of KalgoorlieLocation

Past Weather in Kalgoorlie — Graph

°F

Kalgoorlie Temperature Yesterday

Maximum temperature yesterday: 72 °F (at 1:00 pm)
Minimum temperature yesterday: 48 °F (at 6:00 am)
Average temperature yesterday: 61 °F

High & Low Weather Summary for the Past Weeks

 TemperatureHumidityPressure
High88 °F (Apr 12, 2:00 pm)100% (Apr 18, 5:00 am)30.39 "Hg (Apr 18, 5:00 am)
Low46 °F (Apr 25, 6:00 am)17% (Apr 12, 3:30 pm)29.80 "Hg (Apr 18, 4:00 pm)
Average67 °F55%30.09 "Hg
* Reported Apr 12 4:00 am — Apr 27 4:00 am, Kalgoorlie, Weather by CustomWeather, © 2017

Note: Actual official high and low records may vary slightly from our data, if they occured in-between our weather recording intervals... More about our weather records

Advertising

Kalgoorlie Weather History for the Previous 24 Hours

Scroll right to see more
 ConditionsComfort  
Time TempWeatherWind HumidityBarometerVisibility
4:00 am
Thu, Apr 27
55 °FClear.5 mph63%30.33 "HgN/A
3:30 am57 °FClear.8 mph59%30.33 "HgN/A
2:30 am57 °FClear.7 mph59%30.33 "HgN/A
2:00 am57 °FClear.8 mph59%30.33 "HgN/A
1:30 am57 °FClear.9 mph59%30.33 "HgN/A
1:00 am57 °FClear.10 mph59%30.33 "HgN/A
12:30 am59 °FClear.8 mph55%30.33 "HgN/A
12:00 am59 °FClear.7 mph55%30.33 "HgN/A
11:30 pm
Wed, Apr 26
59 °FClear.6 mph55%30.33 "HgN/A
11:00 pm61 °FClear.7 mph52%30.33 "HgN/A
10:30 pm59 °FClear.6 mph55%30.33 "HgN/A
10:00 pm57 °FClear.5 mph55%30.33 "HgN/A
9:30 pm57 °FClear.5 mph55%30.33 "HgN/A
9:00 pm59 °FClear.7 mph51%30.33 "HgN/A
8:00 pm61 °FClear.6 mph48%30.33 "HgN/A
7:30 pm61 °FClear.5 mph48%30.33 "HgN/A
7:00 pm63 °FClear.6 mph45%30.30 "HgN/A
6:30 pm66 °FPassing clouds.7 mph40%30.30 "HgN/A
6:00 pm66 °FPassing clouds.9 mph40%30.30 "HgN/A
5:30 pm68 °FPassing clouds.9 mph38%30.27 "HgN/A
5:00 pm70 °FPartly sunny.9 mph38%30.27 "HgN/A
4:30 pm72 °FScattered clouds.6 mph33%30.27 "HgN/A
4:00 pm70 °FScattered clouds.8 mph35%30.27 "HgN/A
3:30 pm72 °FScattered clouds.7 mph33%30.27 "HgN/A
3:00 pm72 °FSunny.6 mph33%30.27 "HgN/A
2:30 pm72 °FScattered clouds.7 mph33%30.27 "HgN/A
2:00 pm72 °FScattered clouds.6 mph33%30.27 "HgN/A
1:30 pm72 °FSunny.7 mph36%30.27 "HgN/A
1:00 pm72 °FScattered clouds.7 mph36%30.30 "HgN/A
12:30 pm70 °FPartly sunny.5 mph38%30.30 "HgN/A
12:00 pm70 °FSunny.6 mph40%30.33 "HgN/A
11:30 am68 °FSunny.7 mph46%30.33 "HgN/A
11:00 am68 °FSunny.8 mph46%30.36 "HgN/A
10:30 am66 °FSunny.9 mph49%30.36 "HgN/A
10:00 am64 °FSunny.9 mph52%30.36 "HgN/A
9:30 am64 °FSunny.8 mph52%30.39 "HgN/A
9:00 am61 °FSunny.8 mph63%30.39 "HgN/A
8:30 am59 °FSunny.8 mph68%30.39 "HgN/A
8:00 am55 °FSunny.6 mph72%30.36 "HgN/A
7:30 am54 °FSunny.6 mph77%30.36 "HgN/A
7:00 am50 °FSunny.5 mph82%30.36 "HgN/A
6:30 am48 °FSunny.5 mph82%30.36 "HgN/A
6:00 am48 °FClear.6 mph82%30.36 "HgN/A
5:30 am50 °FClear.8 mph82%30.36 "HgN/A
5:00 am52 °FClear.7 mph82%30.33 "HgN/A
Weather by CustomWeather, © 2017

See weather overviewHow to use our weather pages